When you browse on this site, cookies collect data to enhance your experience and personalize the content and advertising you see.
Visit our Privacy Policy to learn more. By continuing to use the site, you agree to this use of cookies and data.
  • En España
  • Lista de países
  • Para 7 días
  • Temperatura del agua
  • Mapa Satelital
  • El tiempo en el mapa
  • Informadores
  • user-avatar
    Iniciar sesión

    Tiempo cada hora Yeghegnadzor

    Hoy, 18 Enero, Viernes

    Tiempo Temperatura Precipitaciones Viento Presión Humedad
    00:00 -3°C° 0.2 mm 2 mps 647 mmHg 81%
    01:00 -3°C° 0.2 mm 2 mps 647 mmHg 81%
    02:00 -4°C° 0.2 mm 2 mps 648 mmHg 81%
    03:00 -5°C° 0 mm 2 mps 648 mmHg 80%
    04:00 -5°C° 0.1 mm 2 mps 648 mmHg 79%
    05:00 -6°C° 0.1 mm 2 mps 649 mmHg 79%
    06:00 -4°C° 0.1 mm 1 mps 649 mmHg 78%
    07:00 -3°C° 0 mm 1 mps 650 mmHg 76%
    08:00 -3°C° 0 mm 1 mps 650 mmHg 75%
    09:00 -2°C° 0 mm 1 mps 651 mmHg 73%
    10:00 -1°C° 0 mm 1 mps 651 mmHg 72%
    11:00 0°C° 0 mm 1 mps 651 mmHg 70%
    12:00 -2°C° 0 mm 2 mps 651 mmHg 68%
    13:00 -2°C° 0 mm 2 mps 651 mmHg 68%
    14:00 -1°C° 0 mm 2 mps 651 mmHg 68%
    15:00 +1°C° 0 mm 1 mps 651 mmHg 70%
    16:00 -1°C° 0 mm 1 mps 651 mmHg 71%
    17:00 -2°C° 0 mm 1 mps 651 mmHg 72%
    18:00 -4°C° 0 mm 1 mps 651 mmHg 74%
    19:00 -4°C° 0 mm 1 mps 651 mmHg 73%
    20:00 -4°C° 0 mm 1 mps 651 mmHg 72%
    21:00 -6°C° 0 mm 1 mps 651 mmHg 72%
    22:00 -6°C° 0 mm 1 mps 651 mmHg 71%
    23:00 -6°C° 0 mm 1 mps 652 mmHg 70%

    Mañana, 19 Enero, Sábado

    Tiempo Temperatura Precipitaciones Viento Presión Humedad
    00:00 -7°C° 0 mm 1 mps 652 mmHg 70%
    01:00 -7°C° 0 mm 1 mps 651 mmHg 69%
    02:00 -7°C° 0 mm 1 mps 651 mmHg 68%
    03:00 -7°C° 0 mm 1 mps 651 mmHg 68%
    04:00 -7°C° 0 mm 1 mps 651 mmHg 67%
    05:00 -7°C° 0 mm 1 mps 651 mmHg 66%
    06:00 -7°C° 0 mm 1 mps 651 mmHg 65%
    07:00 -6°C° 0 mm 1 mps 651 mmHg 64%
    08:00 -4°C° 0 mm 1 mps 652 mmHg 63%
    09:00 -3°C° 0 mm 1 mps 652 mmHg 62%
    10:00 -2°C° 0 mm 1 mps 652 mmHg 60%
    11:00 -1°C° 0 mm 1 mps 652 mmHg 59%
    12:00 +1°C° 0 mm 1 mps 652 mmHg 58%
    13:00 +1°C° 0 mm 1 mps 652 mmHg 60%
    14:00 +1°C° 0 mm 1 mps 651 mmHg 61%
    15:00 +1°C° 0 mm 1 mps 651 mmHg 63%
    16:00 -1°C° 0 mm 1 mps 651 mmHg 64%
    17:00 -2°C° 0 mm 1 mps 651 mmHg 64%
    18:00 -4°C° 0 mm 1 mps 651 mmHg 65%
    19:00 -4°C° 0 mm 1 mps 651 mmHg 61%
    20:00 -6°C° 0 mm 1 mps 651 mmHg 57%
    21:00 -6°C° 0 mm 1 mps 651 mmHg 53%
    22:00 -6°C° 0 mm 1 mps 652 mmHg 51%
    23:00 -7°C° 0 mm 2 mps 652 mmHg 49%

    Pasado mañana, 20 Enero, Domingo

    Tiempo Temperatura Precipitaciones Viento Presión Humedad
    00:00 -8°C° 0 mm 2 mps 652 mmHg 47%
    01:00 -8°C° 0 mm 2 mps 652 mmHg 47%
    02:00 -8°C° 0 mm 2 mps 652 mmHg 46%
    03:00 -8°C° 0 mm 2 mps 652 mmHg 46%
    04:00 -8°C° 0 mm 2 mps 652 mmHg 46%
    05:00 -8°C° 0 mm 2 mps 652 mmHg 46%
    06:00 -8°C° 0 mm 2 mps 652 mmHg 46%
    07:00 -7°C° 0 mm 2 mps 653 mmHg 47%
    08:00 -4°C° 0 mm 1 mps 653 mmHg 48%
    09:00 -3°C° 0 mm 1 mps 654 mmHg 49%
    10:00 -2°C° 0 mm 1 mps 654 mmHg 49%
    11:00 0°C° 0 mm 1 mps 654 mmHg 49%
    12:00 +1°C° 0 mm 1 mps 654 mmHg 49%
    13:00 +1°C° 0 mm 1 mps 653 mmHg 51%
    14:00 +1°C° 0 mm 1 mps 653 mmHg 54%
    15:00 +1°C° 0 mm 1 mps 653 mmHg 56%
    16:00 -1°C° 0 mm 1 mps 653 mmHg 57%
    17:00 -2°C° 0 mm 1 mps 653 mmHg 59%
    18:00 -4°C° 0 mm 1 mps 652 mmHg 60%
    19:00 -4°C° 0 mm 1 mps 653 mmHg 57%
    20:00 -7°C° 0 mm 2 mps 653 mmHg 54%
    21:00 -7°C° 0 mm 2 mps 653 mmHg 51%
    22:00 -7°C° 0 mm 2 mps 653 mmHg 48%
    23:00 -7°C° 0 mm 2 mps 653 mmHg 45%

    21 Enero, Lunes

    Tiempo Temperatura Precipitaciones Viento Presión Humedad
    00:00 -7°C° 0 mm 2 mps 653 mmHg 42%
    01:00 -8°C° 0 mm 2 mps 653 mmHg 41%
    02:00 -8°C° 0 mm 2 mps 653 mmHg 40%
    03:00 -8°C° 0 mm 2 mps 653 mmHg 38%
    04:00 -8°C° 0 mm 2 mps 653 mmHg 40%
    05:00 -8°C° 0 mm 2 mps 653 mmHg 41%
    06:00 -8°C° 0 mm 2 mps 653 mmHg 42%
    07:00 -7°C° 0 mm 2 mps 653 mmHg 45%
    08:00 -6°C° 0 mm 2 mps 654 mmHg 47%
    09:00 -5°C° 0 mm 2 mps 654 mmHg 50%
    10:00 -1°C° 0 mm 1 mps 654 mmHg 50%
    11:00 0°C° 0 mm 1 mps 653 mmHg 49%
    12:00 +1°C° 0 mm 1 mps 653 mmHg 49%
    13:00 +1°C° 0 mm 1 mps 653 mmHg 51%
    14:00 +1°C° 0 mm 1 mps 652 mmHg 53%
    15:00 +1°C° 0 mm 1 mps 652 mmHg 56%
    16:00 -1°C° 0 mm 1 mps 651 mmHg 56%
    17:00 -2°C° 0 mm 1 mps 651 mmHg 57%
    18:00 -4°C° 0 mm 1 mps 651 mmHg 58%
    19:00 -6°C° 0 mm 2 mps 651 mmHg 55%
    20:00 -7°C° 0 mm 2 mps 651 mmHg 52%
    21:00 -7°C° 0 mm 2 mps 651 mmHg 49%
    22:00 -7°C° 0 mm 2 mps 651 mmHg 49%
    23:00 -7°C° 0 mm 2 mps 651 mmHg 49%

    22 Enero, Martes

    Tiempo Temperatura Precipitaciones Viento Presión Humedad
    00:00 -7°C° 0 mm 2 mps 650 mmHg 49%
    01:00 -8°C° 0 mm 2 mps 650 mmHg 51%
    02:00 -8°C° 0 mm 2 mps 650 mmHg 52%
    03:00 -8°C° 0 mm 2 mps 650 mmHg 53%
    04:00 -8°C° 0 mm 2 mps 650 mmHg 54%
    05:00 -8°C° 0 mm 2 mps 650 mmHg 54%
    06:00 -9°C° 0 mm 2 mps 650 mmHg 55%
    07:00 -6°C° 0 mm 1 mps 650 mmHg 55%
    08:00 -4°C° 0 mm 1 mps 651 mmHg 54%
    09:00 -3°C° 0 mm 1 mps 651 mmHg 54%
    10:00 -2°C° 0 mm 1 mps 651 mmHg 53%
    11:00 -1°C° 0 mm 1 mps 651 mmHg 51%
    12:00 +1°C° 0 mm 1 mps 650 mmHg 50%
    13:00 +1°C° 0 mm 1 mps 650 mmHg 51%
    14:00 +1°C° 0 mm 1 mps 650 mmHg 52%
    15:00 +1°C° 0 mm 1 mps 649 mmHg 54%
    16:00 -1°C° 0 mm 1 mps 649 mmHg 55%
    17:00 -2°C° 0 mm 1 mps 649 mmHg 56%
    18:00 -4°C° 0 mm 1 mps 649 mmHg 56%
    19:00 -4°C° 0 mm 1 mps 649 mmHg 55%
    20:00 -4°C° 0 mm 1 mps 650 mmHg 54%
    21:00 -7°C° 0 mm 2 mps 650 mmHg 52%
    22:00 -7°C° 0 mm 2 mps 650 mmHg 52%
    23:00 -7°C° 0 mm 2 mps 650 mmHg 51%

    23 Enero, Miércoles

    Tiempo Temperatura Precipitaciones Viento Presión Humedad
    00:00 -7°C° 0 mm 2 mps 650 mmHg 51%
    01:00 -7°C° 0 mm 2 mps 650 mmHg 51%
    02:00 -7°C° 0 mm 2 mps 650 mmHg 51%
    03:00 -7°C° 0 mm 2 mps 650 mmHg 51%
    04:00 -7°C° 0 mm 2 mps 650 mmHg 52%
    05:00 -7°C° 0 mm 2 mps 650 mmHg 52%
    06:00 -8°C° 0 mm 2 mps 650 mmHg 53%
    07:00 -6°C° 0 mm 2 mps 650 mmHg 54%
    08:00 -5°C° 0 mm 2 mps 651 mmHg 55%
    09:00 -4°C° 0 mm 2 mps 651 mmHg 56%
    10:00 -3°C° 0 mm 2 mps 651 mmHg 56%
    11:00 -2°C° 0 mm 2 mps 651 mmHg 56%
    12:00 -1°C° 0 mm 2 mps 651 mmHg 55%
    13:00 +1°C° 0 mm 1 mps 651 mmHg 56%
    14:00 +1°C° 0 mm 1 mps 651 mmHg 57%
    15:00 +2°C° 0 mm 1 mps 650 mmHg 58%
    16:00 0°C° 0 mm 1 mps 650 mmHg 60%
    17:00 -2°C° 0 mm 1 mps 650 mmHg 61%
    18:00 -3°C° 0 mm 1 mps 650 mmHg 62%
    19:00 -5°C° 0 mm 2 mps 650 mmHg 60%
    20:00 -6°C° 0 mm 2 mps 650 mmHg 59%
    21:00 -6°C° 0 mm 2 mps 651 mmHg 57%
    22:00 -6°C° 0 mm 2 mps 651 mmHg 59%
    23:00 -6°C° 0 mm 2 mps 651 mmHg 60%
    Mostrar más